Hill City, KS

4:58 AM CDT on August 17, 2017 (GMT -0500)
Hill City Municipal

Weather History for KHLC - August, 2013

Change the Weather History Date:

Friday, August 2, 2013

  Actual Average Record
Temperature  
Mean Temperature 78 °F 79 °F  
Max Temperature 90 °F 92 °F 110 °F (1938)
Min Temperature 65 °F 66 °F 48 °F (1913)
Cooling Degree Days 12    
Growing Degree Days 26 (Base 50)    
Moisture  
Dew Point 68 °F    
Average Humidity 68    
Maximum Humidity 90    
Minimum Humidity 52    
Precipitation  
Precipitation 0.00 in 0.09 in 0.62 in (1999)
Month to date precipitation 0.00 0.19  
Year to date precipitation 12.18 15.16  
Sea Level Pressure  
Sea Level Pressure 29.86 in    
Wind  
Wind Speed 12 mph (ESE)    
Max Wind Speed 18 mph    
Max Gust Speed 38 mph    
Visibility 10 miles    
Events      
T = Trace of Precipitation, MM = Missing Value Source: NWS Daily Summary

Daily Weather History Graph

Daily Weather History Graph

Search for Another Location

Airport or City:

Trip Planner

Search our weather history database for the weather conditions in past years. The results will help you decide how hot, cold, wet, or windy it might be!

Date:

Astronomy

Aug. 02, 2013 Rise Set
Actual Time 6:40 AM CDT 8:50 PM CDT
Civil Twilight 6:10 AM CDT 9:19 PM CDT
Nautical Twilight 5:33 AM CDT 9:56 PM CDT
Astronomical Twilight 4:53 AM CDT 10:36 PM CDT
Moon 3:02 AM CDT (8/2) 5:49 PM CDT (8/2)
Length of Visible Light 15h 09m
Length of Day
14h 09m
Waning Crescent, 15% of the Moon is Illuminated
Aug 2
Waning Crescent
Aug 6
New
Aug 14
First Quarter
Aug 20
Full
Aug 28
Last Quarter

Hourly Weather History & Observations

Time (CDT) Temp. Heat Index Dew Point Humidity Pressure Visibility Wind Dir Wind Speed Gust Speed Precip Events Conditions
12:53 AM 78.1 °F - 64.9 °F 64% 29.78 in 10.0 mi SW 15.0 mph 29.9 mph N/A   Clear
1:37 AM 78.8 °F - 64.4 °F 61% 29.97 in 10.0 mi North 11.5 mph 38.0 mph N/A   Partly Cloudy
1:53 AM 75.0 °F - 66.0 °F 73% 29.91 in 10.0 mi NNE 18.4 mph 27.6 mph N/A   Mostly Cloudy
2:53 AM 66.9 °F - 63.0 °F 87% 29.90 in 10.0 mi East 17.3 mph - N/A   Partly Cloudy
3:53 AM 64.9 °F - 62.1 °F 90% 29.89 in 10.0 mi East 13.8 mph 24.2 mph N/A   Clear
4:53 AM 64.9 °F - - N/A% 29.87 in 10.0 mi ESE 11.5 mph - N/A   Clear
5:53 AM 66.0 °F - - N/A% 29.85 in 10.0 mi ESE 9.2 mph 17.3 mph N/A   Clear
6:53 AM 66.0 °F - - N/A% 29.85 in 10.0 mi SE 15.0 mph - N/A   Clear
7:53 AM 66.9 °F - - N/A% 29.84 in 10.0 mi SSE 9.2 mph 17.3 mph N/A   Clear
8:53 AM 72.0 °F - - N/A% 29.83 in 10.0 mi SE 11.5 mph - N/A   Clear
9:53 AM 77.0 °F - 63.0 °F 62% 29.80 in 10.0 mi SSE 13.8 mph 21.9 mph N/A   Clear
10:53 AM 79.0 °F - 66.0 °F 64% 29.81 in 10.0 mi South 9.2 mph - N/A   Clear
11:53 AM 82.0 °F 84.9 °F 68.0 °F 62% 29.81 in 10.0 mi South 6.9 mph - N/A   Clear
12:53 PM 84.9 °F 88.2 °F 68.0 °F 57% 29.81 in 10.0 mi Variable 4.6 mph - N/A   Clear
1:53 PM 86.0 °F 89.4 °F 68.0 °F 55% 29.80 in 10.0 mi Calm Calm - N/A   Clear
2:53 PM 87.1 °F 91.3 °F 69.1 °F 55% 29.81 in 10.0 mi East 5.8 mph - N/A   Clear
3:53 PM 88.0 °F 92.1 °F 69.1 °F 53% 29.81 in 10.0 mi ESE 5.8 mph - N/A   Partly Cloudy
4:53 PM 89.1 °F 93.7 °F 69.1 °F 52% 29.81 in 10.0 mi East 9.2 mph - N/A   Scattered Clouds
5:53 PM 89.1 °F 93.7 °F 69.1 °F 52% 29.81 in 10.0 mi East 10.4 mph - N/A   Clear
6:53 PM 88.0 °F 92.9 °F 70.0 °F 55% 29.82 in 10.0 mi East 16.1 mph - N/A   Partly Cloudy
7:53 PM 82.9 °F 87.5 °F 71.1 °F 67% 29.85 in 10.0 mi East 16.1 mph 23.0 mph N/A   Clear
8:53 PM 80.1 °F 83.2 °F 70.0 °F 71% 29.86 in 10.0 mi East 11.5 mph - N/A   Clear
10:48 PM 77.0 °F - 69.8 °F 78% 29.98 in 10.0 mi East 13.8 mph - N/A   Overcast
10:53 PM 77.0 °F - 70.0 °F 79% 29.91 in 10.0 mi East 13.8 mph - N/A   Overcast
11:20 PM 75.2 °F - 69.8 °F 83% 29.99 in 10.0 mi East 12.7 mph - N/A   Scattered Clouds
11:46 PM 75.2 °F - 69.8 °F 83% 30.00 in 10.0 mi East 16.1 mph - N/A   Mostly Cloudy
11:53 PM 75.0 °F - 69.1 °F 82% 29.92 in 10.0 mi East 15.0 mph - N/A   Mostly Cloudy